Location: Home
(42.5358°N, 72.7383°W)
Time: 22:16:15
(UTC-05:00)

Vanguard 2 Rocket - Pass Details

Date: 01 December 2021
Orbit: 554 x 3325 km, 32.9° (Epoch: 21 January)

Event Time Altitude Azimuth Distance (km) Brightness Sun altitude
Rises 17:34:30 0° 217° (SW) 3,301 10.7 -13.6°
Reaches altitude 10° 17:36:57 10° 203° (SSW) 2,619 9.8 -14.1°
Maximum altitude 17:42:09 27° 148° (SSE) 2,200 8.7 -15.0°
Enters shadow 17:48:01 15° 103° (ESE) 3,503 9.3 -16.0°
Drops below altitude 10° 17:50:03 10° 97° (E) 4,106 - -16.4°
Sets 17:55:02 0° 87° (E) 5,635 - -17.3°
